Weather History for KMMK - October, 2011

Change the Weather History Date:

Wednesday, October 5, 2011

  Actual Average (KHVN) Record (KHVN)
Temperature  
Mean Temperature 60 °F -  
Max Temperature 70 °F 64 °F 81 °F (2002)
Min Temperature 43 °F 47 °F 35 °F (1996)
Degree Days  
Heating Degree Days 5    
Growing Degree Days 10 (Base 50)    
Moisture  
Dew Point 42 °F    
Average Humidity 59    
Maximum Humidity 93    
Minimum Humidity 33    
Precipitation  
Precipitation 0.00 in - - ()
Sea Level Pressure  
Sea Level Pressure 30.06 in    
Wind  
Wind Speed 8 mph (NNW)    
Max Wind Speed 20 mph    
Max Gust Speed 28 mph    
Visibility 10 miles    
Events      
Averages and records for this station are not official NWS values.
T = Trace of Precipitation, MM = Missing Value Source: NWS Daily Summary

Daily Weather History Graph

Daily Weather History Graph

Search for Another Location

Airport or City:

Trip Planner

Search our weather history database for the weather conditions in past years. The results will help you decide how hot, cold, wet, or windy it might be!

Date:

Astronomy

Oct. 05, 2011 Rise Set
Actual Time 6:52 AM EDT 6:26 PM EDT
Civil Twilight 6:24 AM EDT 6:54 PM EDT
Nautical Twilight 5:52 AM EDT 7:26 PM EDT
Astronomical Twilight 5:19 AM EDT 7:58 PM EDT
Moon 3:09 PM EDT (10/5) 12:31 AM EDT (10/5)
Length of Visible Light 12h 30m
Length of Day
11h 34m
Waxing Gibbous, 66% of the Moon is Illuminated
Oct 5
Waxing Gibbous
Oct 11
Full
Oct 19
Last Quarter
Oct 26
New
Nov 2
First Quarter

Hourly Weather History & Observations

Time (EDT) Temp. Dew Point Humidity Pressure Visibility Wind Dir Wind Speed Gust Speed Precip Events Conditions
12:53 AM 57.0 °F 51.1 °F 81% 29.97 in 10.0 mi NW 6.9 mph - N/A   Scattered Clouds
1:53 AM 55.9 °F 50.0 °F 80% 29.96 in 10.0 mi NW 4.6 mph - N/A   Clear
2:53 AM 55.9 °F 51.1 °F 84% 29.97 in 10.0 mi NNW 9.2 mph - N/A   Overcast
3:53 AM 55.9 °F 51.1 °F 84% 29.98 in 10.0 mi NW 6.9 mph - N/A   Clear
4:53 AM 53.1 °F 48.9 °F 86% 29.99 in 10.0 mi Calm Calm - N/A   Clear
5:53 AM 50.0 °F 48.0 °F 93% 30.00 in 10.0 mi Calm Calm - N/A   Clear
7:53 AM 52.0 °F 50.0 °F 93% 30.03 in 10.0 mi Calm Calm - N/A   Clear
8:53 AM 59.0 °F 50.0 °F 72% 30.03 in 10.0 mi NW 9.2 mph - N/A   Clear
9:53 AM 64.0 °F 48.9 °F 58% 30.03 in 10.0 mi North 9.2 mph - N/A   Scattered Clouds
10:53 AM 64.9 °F 46.9 °F 52% 30.03 in 10.0 mi NW 16.1 mph 25.3 mph N/A   Clear
11:53 AM 66.9 °F 44.1 °F 44% 30.03 in 10.0 mi NNW 18.4 mph 25.3 mph N/A   Clear
12:53 PM 68.0 °F 43.0 °F 40% 30.01 in 10.0 mi NNW 19.6 mph 27.6 mph N/A   Clear
1:53 PM 70.0 °F 41.0 °F 35% 30.01 in 10.0 mi NW 18.4 mph 25.3 mph N/A   Clear
2:53 PM 70.0 °F 41.0 °F 35% 30.01 in 10.0 mi NNW 13.8 mph 25.3 mph N/A   Partly Cloudy
3:53 PM 70.0 °F 39.9 °F 33% 30.03 in 10.0 mi NNW 12.7 mph 26.5 mph N/A   Scattered Clouds
7:53 PM 57.9 °F 30.9 °F 36% 30.18 in 10.0 mi North 15.0 mph 23.0 mph N/A   Clear
8:53 PM 55.0 °F 27.0 °F 34% 30.21 in 10.0 mi North 6.9 mph 16.1 mph N/A   Clear
9:53 PM 54.0 °F 25.0 °F 33% 30.25 in 10.0 mi North 9.2 mph 21.9 mph N/A   Clear
10:53 PM 51.1 °F 27.0 °F 39% 30.28 in 10.0 mi Calm Calm - N/A   Clear
11:53 PM 43.0 °F 34.0 °F 71% 30.29 in 10.0 mi Calm Calm - N/A   Clear